• In Deutschland
  • Länderverzeichnis
  • Für 7 Tage
  • Wassertemperatur
  • Satellitenkarten
  • Wetterkarte
  • Widgets
  • user-avatar
    Anmelden

    Stündliche Wetter Ondjiwa

    Heute, 28 Juli, Freitag

    Zeit Temperatur Niederschläge Wind Luftdruck Luftfeuchtigkeit
    00:00 +16°C° 0 mm 3 m/S 670 mmHg 29%
    01:00 +16°C° 0 mm 3 m/S 670 mmHg 31%
    02:00 +14°C° 0 mm 3 m/S 669 mmHg 32%
    03:00 +14°C° 0 mm 3 m/S 669 mmHg 33%
    04:00 +13°C° 0 mm 3 m/S 669 mmHg 34%
    05:00 +13°C° 0 mm 3 m/S 669 mmHg 34%
    06:00 +13°C° 0 mm 3 m/S 670 mmHg 35%
    07:00 +12°C° 0 mm 3 m/S 670 mmHg 35%
    08:00 +17°C° 0 mm 4 m/S 671 mmHg 30%
    09:00 +21°C° 0 mm 4 m/S 672 mmHg 24%
    10:00 +26°C° 0 mm 5 m/S 673 mmHg 18%
    11:00 +27°C° 0 mm 5 m/S 672 mmHg 16%
    12:00 +29°C° 0 mm 4 m/S 672 mmHg 14%
    13:00 +30°C° 0 mm 4 m/S 671 mmHg 13%
    14:00 +31°C° 0 mm 3 m/S 671 mmHg 12%
    15:00 +31°C° 0 mm 3 m/S 670 mmHg 12%
    16:00 +31°C° 0 mm 3 m/S 670 mmHg 11%
    17:00 +28°C° 0 mm 3 m/S 670 mmHg 14%
    18:00 +25°C° 0 mm 3 m/S 670 mmHg 16%
    19:00 +21°C° 0 mm 2 m/S 669 mmHg 19%
    20:00 +20°C° 0 mm 3 m/S 670 mmHg 21%
    21:00 +19°C° 0 mm 3 m/S 670 mmHg 23%
    22:00 +18°C° 0 mm 3 m/S 670 mmHg 25%
    23:00 +17°C° 0 mm 3 m/S 670 mmHg 27%

    Morgen, 29 Juli, Samstag

    Zeit Temperatur Niederschläge Wind Luftdruck Luftfeuchtigkeit
    00:00 +17°C° 0 mm 3 m/S 670 mmHg 29%
    01:00 +16°C° 0 mm 3 m/S 670 mmHg 31%
    02:00 +14°C° 0 mm 3 m/S 670 mmHg 32%
    03:00 +14°C° 0 mm 3 m/S 669 mmHg 33%
    04:00 +13°C° 0 mm 3 m/S 669 mmHg 34%
    05:00 +13°C° 0 mm 3 m/S 670 mmHg 34%
    06:00 +12°C° 0 mm 3 m/S 670 mmHg 35%
    07:00 +12°C° 0 mm 3 m/S 671 mmHg 35%
    08:00 +17°C° 0 mm 4 m/S 672 mmHg 29%
    09:00 +21°C° 0 mm 5 m/S 673 mmHg 23%
    10:00 +24°C° 0 mm 6 m/S 674 mmHg 18%
    11:00 +27°C° 0 mm 6 m/S 673 mmHg 16%
    12:00 +28°C° 0 mm 5 m/S 672 mmHg 14%
    13:00 +30°C° 0 mm 4 m/S 672 mmHg 12%
    14:00 +30°C° 0 mm 4 m/S 671 mmHg 12%
    15:00 +30°C° 0 mm 3 m/S 671 mmHg 11%
    16:00 +30°C° 0 mm 3 m/S 670 mmHg 11%
    17:00 +27°C° 0 mm 3 m/S 670 mmHg 14%
    18:00 +24°C° 0 mm 2 m/S 670 mmHg 17%
    19:00 +21°C° 0 mm 2 m/S 669 mmHg 19%
    20:00 +20°C° 0 mm 2 m/S 670 mmHg 22%
    21:00 +18°C° 0 mm 3 m/S 670 mmHg 24%
    22:00 +17°C° 0 mm 3 m/S 670 mmHg 26%
    23:00 +17°C° 0 mm 3 m/S 670 mmHg 28%

    übermorgen, 30 Juli, Sonntag

    Zeit Temperatur Niederschläge Wind Luftdruck Luftfeuchtigkeit
    00:00 +16°C° 0 mm 3 m/S 670 mmHg 29%
    01:00 +16°C° 0 mm 3 m/S 670 mmHg 31%
    02:00 +14°C° 0 mm 3 m/S 669 mmHg 32%
    03:00 +13°C° 0 mm 3 m/S 669 mmHg 33%
    04:00 +13°C° 0 mm 3 m/S 669 mmHg 34%
    05:00 +13°C° 0 mm 3 m/S 669 mmHg 36%
    06:00 +12°C° 0 mm 3 m/S 670 mmHg 38%
    07:00 +12°C° 0 mm 3 m/S 670 mmHg 40%
    08:00 +17°C° 0 mm 4 m/S 671 mmHg 34%
    09:00 +21°C° 0 mm 5 m/S 672 mmHg 28%
    10:00 +26°C° 0 mm 6 m/S 673 mmHg 22%
    11:00 +28°C° 0 mm 5 m/S 672 mmHg 19%
    12:00 +29°C° 0 mm 4 m/S 672 mmHg 16%
    13:00 +30°C° 0 mm 3 m/S 671 mmHg 14%
    14:00 +30°C° 0 mm 3 m/S 670 mmHg 13%
    15:00 +31°C° 0 mm 3 m/S 670 mmHg 13%
    16:00 +31°C° 0 mm 2 m/S 669 mmHg 13%
    17:00 +28°C° 0 mm 2 m/S 669 mmHg 16%
    18:00 +25°C° 0 mm 2 m/S 669 mmHg 19%
    19:00 +21°C° 0 mm 2 m/S 669 mmHg 22%
    20:00 +20°C° 0 mm 2 m/S 669 mmHg 25%
    21:00 +19°C° 0 mm 3 m/S 669 mmHg 28%
    22:00 +18°C° 0 mm 3 m/S 669 mmHg 32%
    23:00 +18°C° 0 mm 3 m/S 669 mmHg 34%

    31 Juli, Montag

    Zeit Temperatur Niederschläge Wind Luftdruck Luftfeuchtigkeit
    00:00 +17°C° 0 mm 3 m/S 669 mmHg 37%
    01:00 +17°C° 0 mm 3 m/S 668 mmHg 40%
    02:00 +16°C° 0 mm 3 m/S 668 mmHg 42%
    03:00 +14°C° 0 mm 3 m/S 668 mmHg 44%
    04:00 +14°C° 0 mm 3 m/S 668 mmHg 46%
    05:00 +14°C° 0 mm 3 m/S 668 mmHg 47%
    06:00 +13°C° 0 mm 3 m/S 669 mmHg 48%
    07:00 +13°C° 0 mm 3 m/S 669 mmHg 49%
    08:00 +18°C° 0 mm 3 m/S 670 mmHg 41%
    09:00 +22°C° 0 mm 4 m/S 671 mmHg 32%
    10:00 +27°C° 0 mm 5 m/S 672 mmHg 24%
    11:00 +28°C° 0 mm 4 m/S 671 mmHg 20%
    12:00 +30°C° 0 mm 3 m/S 670 mmHg 17%
    13:00 +33°C° 0 mm 3 m/S 670 mmHg 13%
    14:00 +32°C° 0 mm 2 m/S 669 mmHg 13%
    15:00 +32°C° 0 mm 1 m/S 669 mmHg 12%
    16:00 +30°C° 0 mm 0 m/S 669 mmHg 11%
    17:00 +30°C° 0 mm 1 m/S 668 mmHg 14%
    18:00 +27°C° 0 mm 1 m/S 668 mmHg 17%
    19:00 +24°C° 0 mm 2 m/S 668 mmHg 19%
    20:00 +23°C° 0 mm 2 m/S 668 mmHg 21%
    21:00 +21°C° 0 mm 2 m/S 668 mmHg 23%
    22:00 +20°C° 0 mm 3 m/S 669 mmHg 24%
    23:00 +19°C° 0 mm 3 m/S 669 mmHg 26%

    1 August, Dienstag

    Zeit Temperatur Niederschläge Wind Luftdruck Luftfeuchtigkeit
    00:00 +19°C° 0 mm 3 m/S 668 mmHg 27%
    01:00 +18°C° 0 mm 3 m/S 668 mmHg 28%
    02:00 +17°C° 0 mm 2 m/S 668 mmHg 31%
    03:00 +16°C° 0 mm 2 m/S 668 mmHg 33%
    04:00 +15°C° 0 mm 1 m/S 668 mmHg 35%
    05:00 +15°C° 0 mm 1 m/S 668 mmHg 36%
    06:00 +15°C° 0 mm 1 m/S 669 mmHg 38%
    07:00 +15°C° 0 mm 1 m/S 669 mmHg 39%
    08:00 +19°C° 0 mm 2 m/S 670 mmHg 33%
    09:00 +22°C° 0 mm 3 m/S 671 mmHg 28%
    10:00 +27°C° 0 mm 3 m/S 672 mmHg 22%
    11:00 +29°C° 0 mm 3 m/S 671 mmHg 19%
    12:00 +31°C° 0 mm 3 m/S 671 mmHg 16%
    13:00 +34°C° 0 mm 2 m/S 670 mmHg 14%
    14:00 +34°C° 0 mm 2 m/S 670 mmHg 13%
    15:00 +34°C° 0 mm 2 m/S 670 mmHg 12%
    16:00 +33°C° 0 mm 1 m/S 669 mmHg 11%
    17:00 +30°C° 0 mm 2 m/S 669 mmHg 14%
    18:00 +27°C° 0 mm 2 m/S 669 mmHg 17%
    19:00 +25°C° 0 mm 3 m/S 669 mmHg 19%
    20:00 +24°C° 0 mm 3 m/S 669 mmHg 21%
    21:00 +22°C° 0 mm 3 m/S 669 mmHg 22%
    22:00 +21°C° 0 mm 3 m/S 669 mmHg 24%
    23:00 +20°C° 0 mm 3 m/S 669 mmHg 24%

    2 August, Mittwoch

    Zeit Temperatur Niederschläge Wind Luftdruck Luftfeuchtigkeit
    00:00 +19°C° 0 mm 2 m/S 669 mmHg 25%
    01:00 +18°C° 0 mm 2 m/S 668 mmHg 26%
    02:00 +18°C° 0 mm 2 m/S 668 mmHg 28%
    03:00 +17°C° 0 mm 2 m/S 668 mmHg 29%
    04:00 +16°C° 0 mm 2 m/S 668 mmHg 31%
    05:00 +16°C° 0 mm 2 m/S 669 mmHg 33%
    06:00 +16°C° 0 mm 2 m/S 669 mmHg 35%
    07:00 +15°C° 0 mm 1 m/S 670 mmHg 36%
    08:00 +19°C° 0 mm 2 m/S 671 mmHg 31%
    09:00 +24°C° 0 mm 3 m/S 671 mmHg 25%
    10:00 +28°C° 0 mm 3 m/S 672 mmHg 20%
    11:00 +30°C° 0 mm 3 m/S 672 mmHg 17%
    12:00 +31°C° 0 mm 3 m/S 671 mmHg 15%
    13:00 +34°C° 0 mm 3 m/S 671 mmHg 13%
    14:00 +34°C° 0 mm 3 m/S 671 mmHg 12%
    15:00 +34°C° 0 mm 2 m/S 670 mmHg 12%
    16:00 +34°C° 0 mm 2 m/S 670 mmHg 11%
    17:00 +31°C° 0 mm 2 m/S 669 mmHg 13%
    18:00 +28°C° 0 mm 2 m/S 669 mmHg 16%
    19:00 +25°C° 0 mm 2 m/S 669 mmHg 18%
    20:00 +24°C° 0 mm 2 m/S 669 mmHg 19%
    21:00 +23°C° 0 mm 2 m/S 669 mmHg 21%
    22:00 +21°C° 0 mm 2 m/S 669 mmHg 22%
    23:00 +20°C° 0 mm 2 m/S 669 mmHg 23%
    Mehr zeigen